H1 CPF 2 NER 2025 6 14 9 165 01 glonass144 H2 2207501 9144 52984 2025 6 14 0 0 0 2025 6 17 23 45 0 900 1 1 0 0 0 1 H9 10 0 60840 0.00000 0 -6821147.139 -23306006.627 -7799843.549 10 0 60840 900.00000 0 -6414766.998 -22226190.926 -10734995.357 10 0 60840 1800.00000 0 -5751671.681 -20879696.759 -13461478.790 10 0 60840 2700.00000 0 -4810474.488 -19321979.828 -15926227.906 10 0 60840 3600.00000 0 -3581651.798 -17613754.175 -18081245.690 10 0 60840 4500.00000 0 -2068215.852 -15818468.985 -19884545.319 10 0 60840 5400.00000 0 -285858.395 -13999688.298 -21300974.659 10 0 60840 6300.00000 0 1737442.859 -12218483.799 -22302907.552 10 0 60840 7200.00000 0 3962340.183 -10530950.342 -22870787.992 10 0 60840 8100.00000 0 6339517.449 -8985948.610 -22993516.305 10 0 60840 9000.00000 0 8811520.005 -7623169.652 -22668669.545 10 0 60840 9900.00000 0 11314937.263 -6471602.433 -21902551.532 10 0 60840 10800.00000 0 13782847.445 -5548468.418 -20710071.386 10 0 60840 11700.00000 0 16147422.692 -4858667.393 -19114452.682 10 0 60840 12600.00000 0 18342585.772 -4394757.088 -17146778.861 10 0 60840 13500.00000 0 20306607.312 -4137466.425 -14845383.692 10 0 60840 14400.00000 0 21984534.796 -4056719.590 -12255098.874 10 0 60840 15300.00000 0 23330351.583 -4113126.338 -9426373.753 10 0 60840 16200.00000 0 24308775.587 -4259874.119 -6414284.864 10 0 60840 17100.00000 0 24896622.513 -4444940.540 -3277455.271 10 0 60840 18000.00000 0 25083677.021 -4613531.080 -76905.626 10 0 60840 18900.00000 0 24873036.134 -4710637.570 3125139.794 10 0 60840 19800.00000 0 24280911.613 -4683607.992 6266468.027 10 0 60840 20700.00000 0 23335900.887 -4484617.961 9286088.940 10 0 60840 21600.00000 0 22077758.551 -4072938.790 12125419.339 10 0 60840 22500.00000 0 20555721.287 -3416905.909 14729416.534 10 0 60840 23400.00000 0 18826457.538 -2495504.491 17047639.539 10 0 60840 24300.00000 0 16951728.605 -1299505.436 19035217.901 10 0 60840 25200.00000 0 14995859.340 167896.034 20653710.317 10 0 60840 26100.00000 0 13023124.049 1890966.095 21871837.464 10 0 60840 27000.00000 0 11095156.104 3841847.398 22666076.155 10 0 60840 27900.00000 0 9268488.289 5981486.759 23021104.534 10 0 60840 28800.00000 0 7592325.088 8261037.570 22930090.773 10 0 60840 29700.00000 0 6106638.186 10623679.666 22394820.500 10 0 60840 30600.00000 0 4840662.953 13006782.333 21425660.962 10 0 60840 31500.00000 0 3811857.149 15344321.961 20041362.644 10 0 60840 32400.00000 0 3025363.970 17569455.461 18268701.865 10 0 60840 33300.00000 0 2474000.896 19617143.874 16141970.548 10 0 60840 34200.00000 0 2138774.154 21426718.299 13702322.077 10 0 60840 35100.00000 0 1989896.873 22944282.230 10996984.831 10 0 60840 36000.00000 0 1988268.112 24124850.785 8078357.421 10 0 60840 36900.00000 0 2087350.639 24934137.700 5003002.197 10 0 60840 37800.00000 0 2235368.500 25349915.258 1830555.656 10 0 60840 38700.00000 0 2377731.753 25362889.761 -1377423.715 10 0 60840 39600.00000 0 2459585.859 24977055.156 -4558648.043 10 0 60840 40500.00000 0 2428377.622 24209509.161 -7651309.969 10 0 60840 41400.00000 0 2236328.523 23089738.729 -10595286.136 10 0 60840 42300.00000 0 1842709.844 21658404.053 -13333310.356 10 0 60840 43200.00000 0 1215822.127 19965671.503 -15812093.132 10 0 60840 44100.00000 0 334593.738 18069164.940 -17983365.170 10 0 60840 45000.00000 0 -810270.656 16031621.100 -19804823.925 10 0 60840 45900.00000 0 -2215642.013 13918347.240 -21240964.273 10 0 60840 46800.00000 0 -3865848.415 11794587.582 -22263776.672 10 0 60840 47700.00000 0 -5733092.919 9722909.001 -22853298.811 10 0 60840 48600.00000 0 -7778391.865 7760715.492 -22998009.707 10 0 60840 49500.00000 0 -9952995.711 5957995.489 -22695058.311 10 0 60840 50400.00000 0 -12200233.951 4355396.268 -21950321.912 10 0 60840 51300.00000 0 -14457707.667 2982705.746 -20778292.993 10 0 60840 52200.00000 0 -16659738.447 1857804.758 -19201796.591 10 0 60840 53100.00000 0 -18739971.301 986133.005 -17251543.534 10 0 60840 54000.00000 0 -20634022.610 360689.992 -14965528.283 10 0 60840 54900.00000 0 -22282061.982 -37430.364 -12388283.233 10 0 60840 55800.00000 0 -23631219.589 -237995.477 -9570004.346 10 0 60840 56700.00000 0 -24637717.821 -280125.882 -6565565.681 10 0 60840 57600.00000 0 -25268637.800 -210388.491 -3433442.664 10 0 60840 58500.00000 0 -25503246.759 -80573.581 -234565.960 10 0 60840 59400.00000 0 -25333831.019 54748.842 2968870.853 10 0 60840 60300.00000 0 -24766000.309 140788.517 6114625.787 10 0 60840 61200.00000 0 -23818451.625 125100.820 9141620.709 10 0 60840 62100.00000 0 -22522203.628 -39950.288 11991127.348 10 0 60840 63000.00000 0 -20919334.851 -394936.840 14607903.854 10 0 60840 63900.00000 0 -19061279.581 -971414.427 16941260.002 10 0 60840 64800.00000 0 -17006753.521 -1790355.057 18946030.957 10 0 60840 65700.00000 0 -14819396.319 -2861031.209 20583441.627 10 0 60840 66600.00000 0 -12565229.383 -4180397.889 21821845.963 10 0 60840 67500.00000 0 -10310034.468 -5732998.668 22637328.149 10 0 60840 68400.00000 0 -8116761.283 -7491399.965 23014155.300 10 0 60840 69300.00000 0 -6043070.737 -9417135.985 22945073.993 10 0 60840 70200.00000 0 -4139114.465 -11462125.818 22431445.718 10 0 60840 71100.00000 0 -2445641.335 -13570504.784 21483219.112 10 0 60840 72000.00000 0 -992508.087 -15680795.139 20118739.566 10 0 60840 72900.00000 0 202345.386 -17728327.200 18364399.570 10 0 60840 73800.00000 0 1133414.646 -19647811.557 16254135.861 10 0 60840 74700.00000 0 1807622.527 -21375956.448 13828782.150 10 0 60840 75600.00000 0 2243785.155 -22854022.193 11135288.879 10 0 60840 76500.00000 0 2471574.907 -24030206.764 8225823.914 10 0 60840 77400.00000 0 2530024.029 -24861763.028 5156770.635 10 0 60840 78300.00000 0 2465631.850 -25316758.970 1987641.925 10 0 60840 79200.00000 0 2330155.385 -25375406.644 -1220069.474 10 0 60840 80100.00000 0 2178176.622 -25030903.312 -4404082.179 10 0 60840 81000.00000 0 2064549.535 -24289748.474 -7502535.870 10 0 60840 81900.00000 0 2041835.248 -23171522.328 -10455195.745 10 0 60840 82800.00000 0 2157834.593 -21708133.869 -13204627.812 10 0 60840 83700.00000 0 2453323.450 -19942569.172 -15697321.654 10 0 60840 84600.00000 0 2960087.931 -17927191.503 -17884738.203 10 0 60840 85500.00000 0 3699343.887 -15721663.925 -19724261.517 10 0 60841 0.00000 0 4680609.002 -13390581.212 -21180035.422 10 0 60841 900.00000 0 5901077.313 -11000908.672 -22223668.961 10 0 60841 1800.00000 0 7345522.768 -8619338.095 -22834794.687 10 0 60841 2700.00000 0 8986739.251 -6309667.162 -23001471.200 10 0 60841 3600.00000 0 10786498.686 -4130314.887 -22720419.813 10 0 60841 4500.00000 0 12696988.657 -2132075.599 -21997091.311 10 0 60841 5400.00000 0 14662669.973 -356205.268 -20845561.174 10 0 60841 6300.00000 0 16622476.891 1167080.254 -19288255.111 10 0 60841 7200.00000 0 18512267.904 2419632.936 -17355510.138 10 0 60841 8100.00000 0 20267424.316 3395884.136 -15084979.781 10 0 60841 9000.00000 0 21825487.353 4102819.864 -12520895.062 10 0 60841 9900.00000 0 23128722.729 4559422.294 -9713196.065 10 0 60841 10800.00000 0 24126504.633 4795602.768 -6716551.469 10 0 60841 11700.00000 0 24777418.645 4850673.143 -3589285.822 10 0 60841 12600.00000 0 25050995.078 4771421.872 -392236.334 10 0 60841 13500.00000 0 24928999.984 4609877.951 2812437.706 10 0 60841 14400.00000 0 24406229.924 4420858.873 5962468.854 10 0 60841 15300.00000 0 23490777.690 4259407.696 8996694.409 10 0 60841 16200.00000 0 22203758.628 4178228.605 11856244.219 10 0 60841 17100.00000 0 20578509.887 4225230.050 14485680.159 10 0 60841 18000.00000 0 18659296.985 4441279.527 16834065.298 10 0 60841 18900.00000 0 16499582.495 4858264.740 18855942.563 10 0 60841 19800.00000 0 14159929.538 5497542.644 20512204.845 10 0 60841 20700.00000 0 11705627.595 6368841.353 21770840.737 10 0 60841 21600.00000 0 9204139.131 7469660.814 22607542.757 10 0 60841 22500.00000 0 6722472.392 8785197.381 23006167.536 10 0 60841 23400.00000 0 4324588.444 10288795.664 22959040.146 10 0 60841 24300.00000 0 2068948.611 11942909.332 22467097.552 10 0 60841 25200.00000 0 6302.514 13700531.649 21539868.904 10 0 60841 26100.00000 0 -1822193.100 15507037.161 20195293.135 10 0 60841 27000.00000 0 -3386448.174 17302359.028 18459377.086 10 0 60841 27900.00000 0 -4668445.913 19023412.569 16365700.075 10 0 60841 28800.00000 0 -5662741.319 20606665.121 13954773.576 10 0 60841 29700.00000 0 -6376431.738 21990745.975 11273267.271 10 0 60841 30600.00000 0 -6828601.247 23118988.074 8373115.292 10 0 60841 31500.00000 0 -7049262.471 23941795.442 5310518.948 10 0 60841 32400.00000 0 -7077840.445 24418737.118 2144864.372 10 0 60841 33300.00000 0 -6961262.385 24520279.317 -1062424.543 10 0 60841 34200.00000 0 -6751733.967 24229082.265 -4249075.923 10 0 60841 35100.00000 0 -6504296.164 23540806.124 -7353179.350 10 0 60841 36000.00000 0 -6274266.223 22464390.845 -10314391.213 10 0 60841 36900.00000 0 -6114671.523 21021796.817 -13075112.091 10 0 60841 37800.00000 0 -6073785.668 19247215.858 -15581612.701 10 0 60841 38700.00000 0 -6192871.974 17185784.442 -17785085.939 10 0 60841 39600.00000 0 -6504230.984 14891852.104 -19642603.895 10 0 60841 40500.00000 0 -7029635.798 12426876.738 -21117960.686 10 0 60841 41400.00000 0 -7779222.714 9857034.285 -22182384.264 10 0 60841 42300.00000 0 -8750885.386 7250642.392 -22815102.906 10 0 60841 43200.00000 0 -9930199.398 4675505.410 -23003755.071 10 0 60841 44100.00000 0 -11290881.705 2196291.424 -22744634.388 10 0 60841 45000.00000 0 -12795766.655 -127949.332 -22042764.741 10 0 60841 45900.00000 0 -14398258.393 -2246021.350 -20911803.814 10 0 60841 46800.00000 0 -16044199.174 -4116482.970 -19373776.788 10 0 60841 47700.00000 0 -17674075.312 -5709128.982 -17458645.289 10 0 60841 48600.00000 0 -19225468.074 -7005995.539 -15203719.959 10 0 60841 49500.00000 0 -20635646.231 -8001846.436 -12652928.221 10 0 60841 50400.00000 0 -21844190.835 -8704121.763 -9855951.829 10 0 60841 51300.00000 0 -22795541.295 -9132352.774 -6867251.482 10 0 60841 52200.00000 0 -23441355.138 -9317069.459 -3744998.174 10 0 60841 53100.00000 0 -23742581.716 -9298248.829 -549932.927 10 0 60841 54000.00000 0 -23671162.361 -9123371.336 2655822.000 10 0 60841 54900.00000 0 -23211285.498 -8845169.346 5809976.453 10 0 60841 55800.00000 0 -22360144.128 -8519164.391 8851285.873 10 0 60841 56700.00000 0 -21128164.351 -8201098.539 11720740.878 10 0 60841 57600.00000 0 -19538695.878 -7944369.270 14362709.596 10 0 60841 58500.00000 0 -17627178.158 -7797576.630 16726010.735 10 0 60841 59400.00000 0 -15439817.514 -7802286.215 18764897.091 10 0 60841 60300.00000 0 -13031830.863 -7991102.035 20439931.318 10 0 60841 61200.00000 0 -10465329.291 -8386129.919 21718738.071 10 0 60841 62100.00000 0 -7806929.235 -8997895.612 22576619.226 10 0 60841 63000.00000 0 -5125189.823 -9824762.552 22997021.542 10 0 60841 63900.00000 0 -2487981.679 -10852873.592 22971848.802 10 0 60841 64800.00000 0 40105.038 -12056619.250 22501613.297 10 0 60841 65700.00000 0 2400207.523 -13399613.350 21595424.196 10 0 60841 66600.00000 0 4541392.276 -14836136.097 20270813.164 10 0 60841 67500.00000 0 6422522.438 -16312985.301 18553400.278 10 0 60841 68400.00000 0 8013714.409 -17771659.606 16476406.041 10 0 60841 69300.00000 0 9297324.427 -19150783.637 14080017.991 10 0 60841 70200.00000 0 10268424.947 -20388674.700 11410623.057 10 0 60841 71100.00000 0 10934751.684 -21425944.416 8519919.367 10 0 60841 72000.00000 0 11316123.887 -22208026.725 5463923.645 10 0 60841 72900.00000 0 11443362.459 -22687526.265 2301892.568 10 0 60841 73800.00000 0 11356751.430 -22826288.166 -904821.652 10 0 60841 74700.00000 0 11104107.637 -22597101.478 -4093959.539 10 0 60841 75600.00000 0 10738540.099 -21984963.489 -7203563.458 10 0 60841 76500.00000 0 10315993.872 -20987850.342 -10173183.817 10 0 60841 77400.00000 0 9892682.570 -19616960.009 -12945058.489 10 0 60841 78300.00000 0 9522518.606 -17896415.805 -15465241.914 10 0 60841 79200.00000 0 9254650.581 -15862441.316 -17684661.357 10 0 60841 80100.00000 0 9131212.823 -13562040.032 -19560079.101 10 0 60841 81000.00000 0 9185383.214 -11051233.771 -21054941.326 10 0 60841 81900.00000 0 9439832.419 -8392932.702 -22140096.676 10 0 60841 82800.00000 0 9905631.139 -5654525.324 -22794370.153 10 0 60841 83700.00000 0 10581662.530 -2905288.542 -23004980.814 10 0 60841 84600.00000 0 11454565.606 -213725.578 -22767794.936 10 0 60841 85500.00000 0 12499212.830 2355057.479 -22087409.430 10 0 60842 0.00000 0 13679702.373 4741827.086 -20977063.849 10 0 60842 900.00000 0 14950824.355 6895447.935 -19458381.827 10 0 60842 1800.00000 0 16259937.923 8774763.283 -17560948.480 10 0 60842 2700.00000 0 17549182.177 10350056.269 -15321730.001 10 0 60842 3600.00000 0 18757926.004 11604028.800 -12784348.270 10 0 60842 4500.00000 0 19825353.705 12532259.494 -9998224.385 10 0 60842 5400.00000 0 20693076.783 13143122.756 -7017608.397 10 0 60842 6300.00000 0 21307661.155 13457174.140 -3900514.765 10 0 60842 7200.00000 0 21622962.652 13506029.762 -707585.127 10 0 60842 8100.00000 0 21602171.903 13330788.984 2499098.608 10 0 60842 9000.00000 0 21219482.189 12980068.835 5657226.893 10 0 60842 9900.00000 0 20461309.967 12507734.873 8705476.546 10 0 60842 10800.00000 0 19327016.857 11970425.765 11584701.986 10 0 60842 11700.00000 0 17829103.087 11424977.145 14239080.392 10 0 60842 12600.00000 0 15992864.634 10925854.109 16617188.617 10 0 60842 13500.00000 0 13855528.768 10522700.789 18672991.525 10 0 60842 14400.00000 0 11464904.308 10258110.041 20366723.423 10 0 60842 15300.00000 0 8877602.886 10165706.601 21665646.581 10 0 60842 16200.00000 0 6156904.893 10268623.589 22544673.443 10 0 60842 17100.00000 0 3370358.116 10578435.625 22986841.724 10 0 60842 18000.00000 0 587207.706 11094592.718 22983634.332 10 0 60842 18900.00000 0 -2124237.303 11804378.298 22535138.826 10 0 60842 19800.00000 0 -4699193.350 12683393.160 21650043.844 10 0 60842 20700.00000 0 -7078841.917 13696545.363 20345472.720 10 0 60842 21600.00000 0 -9212519.817 14799505.351 18646657.199 10 0 60842 22500.00000 0 -11059570.879 15940566.287 16586456.932 10 0 60842 23400.00000 0 -12590783.343 17062832.732 14204733.090 10 0 60842 24300.00000 0 -13789354.222 18106646.985 11547587.125 10 0 60842 25200.00000 0 -14651341.139 19012152.202 8666478.216 10 0 60842 26100.00000 0 -15185583.229 19721885.288 5617235.444 10 0 60842 27000.00000 0 -15413094.640 20183290.824 2458982.930 10 0 60842 27900.00000 0 -15365956.170 20351050.115 -747001.879 10 0 60842 28800.00000 0 -15085751.614 20189126.672 -3938474.926 10 0 60842 29700.00000 0 -14621614.698 19672440.968 -7053434.260 10 0 60842 30600.00000 0 -14027968.999 18788102.559 -10031327.054 10 0 60842 31500.00000 0 -13362056.483 17536146.059 -12814231.001 10 0 60842 32400.00000 0 -12681359.392 15929738.269 -15347986.530 10 0 60842 33300.00000 0 -12041024.911 13994845.938 -17583257.238 10 0 60842 34200.00000 0 -11491402.094 11769376.436 -19476497.243 10 0 60842 35100.00000 0 -11075795.827 9301825.856 -20990806.092 10 0 60842 36000.00000 0 -10828533.497 6649489.818 -22096654.116 10 0 60842 36900.00000 0 -10773426.799 3876310.793 -22772463.699 10 0 60842 37800.00000 0 -10922694.355 1050451.087 -23005034.838 10 0 60842 38700.00000 0 -11276391.293 -1758307.827 -22789806.458 10 0 60842 39600.00000 0 -11822370.419 -4481231.523 -22130948.153 10 0 60842 40500.00000 0 -12536777.041 -7053253.493 -21041280.386 10 0 60842 41400.00000 0 -13385056.822 -9415441.691 -19542024.546 10 0 60842 42300.00000 0 -14323434.206 -11517208.129 -17662387.617 10 0 60842 43200.00000 0 -15300798.878 -13318169.760 -15438989.550 10 0 60842 44100.00000 0 -16260920.296 -14789583.542 -12915144.598 10 0 60842 45000.00000 0 -17144896.275 -15915296.560 -10140010.916 10 0 60842 45900.00000 0 -17893731.557 -16692172.593 -7167625.451 10 0 60842 46800.00000 0 -18450936.750 -17129978.768 -4055843.582 10 0 60842 47700.00000 0 -18765037.124 -17250738.757 -865204.952 10 0 60842 48600.00000 0 -18791884.726 -17087581.655 2342251.524 10 0 60842 49500.00000 0 -18496675.715 -16683136.955 5504199.575 10 0 60842 50400.00000 0 -17855587.559 -16087545.107 8559240.051 10 0 60842 51300.00000 0 -16856967.019 -15356169.158 11448093.811 10 0 60842 52200.00000 0 -15502019.009 -14547105.261 14114749.627 10 0 60842 53100.00000 0 -13804967.554 -13718597.809 16507544.914 10 0 60842 54000.00000 0 -11792682.303 -12926468.464 18580158.810 10 0 60842 54900.00000 0 -9503786.250 -12221667.181 20292499.210 10 0 60842 55800.00000 0 -6987281.854 -11648047.735 21611467.624 10 0 60842 56700.00000 0 -4300752.376 -11240460.370 22511588.332 10 0 60842 57600.00000 0 -1508212.554 -11023240.677 22975490.906 10 0 60842 58500.00000 0 1322303.159 -11009157.126 22994237.917 10 0 60842 59400.00000 0 4121316.087 -11198860.536 22567492.380 10 0 60842 60300.00000 0 6820537.344 -11580858.028 21703522.261 10 0 60842 61200.00000 0 9355452.854 -12132012.368 20419042.098 10 0 60842 62100.00000 0 11667753.905 -12818545.941 18738894.531 10 0 60842 63000.00000 0 13707513.962 -13597507.823 16695577.262 10 0 60842 63900.00000 0 15435022.670 -14418643.175 14328623.659 10 0 60842 64800.00000 0 16822201.812 -15226587.355 11683847.895 10 0 60842 65700.00000 0 17853545.019 -15963293.443 8812468.026 10 0 60842 66600.00000 0 18526542.401 -16570591.780 5770122.961 10 0 60842 67500.00000 0 18851572.568 -16992774.137 2615801.428 10 0 60842 68400.00000 0 18851266.551 -17179093.702 -589296.967 10 0 60842 69300.00000 0 18559370.228 -17086075.026 -3782946.794 10 0 60842 70200.00000 0 18019152.955 -16679535.683 -6903105.026 10 0 60842 71100.00000 0 17281429.348 -15936233.107 -9889118.775 10 0 60842 72000.00000 0 16402277.620 -14845065.607 -12682908.579 10 0 60842 72900.00000 0 15440550.889 -13407775.139 -15230103.679 10 0 60842 73800.00000 0 14455286.777 -11639120.353 -17481106.574 10 0 60842 74700.00000 0 13503125.059 -9566510.712 -19392065.503 10 0 60842 75600.00000 0 12635842.890 -7229115.277 -20925735.342 10 0 60842 76500.00000 0 11898112.131 -4676481.847 -22052209.710 10 0 60842 77400.00000 0 11325573.981 -1966722.954 -22749509.593 10 0 60842 78300.00000 0 10943312.579 835656.591 -23004016.739 10 0 60842 79200.00000 0 10764792.380 3662200.713 -22810743.122 10 0 60842 80100.00000 0 10791304.369 6443110.342 -22173431.007 10 0 60842 81000.00000 0 11011944.623 9109910.586 -21104481.486 10 0 60842 81900.00000 0 11404126.064 11598065.848 -19624712.709 10 0 60842 82800.00000 0 11934601.633 13849434.027 -17762952.440 10 0 60842 83700.00000 0 12560955.271 15814457.626 -15555472.845 10 0 60842 84600.00000 0 13233497.213 17454000.695 -13045278.632 10 0 60842 85500.00000 0 13897482.771 18740755.356 -10281262.719 10 0 60843 0.00000 0 14495559.941 19660159.849 -7317246.588 10 0 60843 900.00000 0 14970341.788 20210791.221 -4210923.059 10 0 60843 1800.00000 0 15266993.112 20404216.474 -1022726.867 10 0 60843 2700.00000 0 15335722.327 20264311.737 2185349.370 10 0 60843 3600.00000 0 15134071.732 19826078.621 5350965.993 10 0 60843 4500.00000 0 14628909.270 19134009.928 8412651.135 10 0 60843 5400.00000 0 13798037.405 18240075.142 11310995.173 10 0 60843 6300.00000 0 12631351.204 17201411.917 13989801.330 10 0 60843 7200.00000 0 11131496.906 16077821.779 16397170.153 10 0 60843 8100.00000 0 9314003.371 14929175.962 18486497.333 10 0 60843 9000.00000 0 7206880.879 13812840.483 20217366.327 10 0 60843 9900.00000 0 4849703.901 12781228.212 21556319.541 10 0 60843 10800.00000 0 2292215.688 11879579.847 22477494.404 10 0 60843 11700.00000 0 -407487.915 11144065.732 22963113.301 10 0 60843 12600.00000 0 -3185120.922 10600286.857 23003819.009 10 0 60843 13500.00000 0 -5972627.450 10262236.618 22598850.099 10 0 60843 14400.00000 0 -8700760.913 10131765.787 21756053.478 10 0 60843 15300.00000 0 -11301716.847 10198572.415 20491733.979 10 0 60843 16200.00000 0 -13711711.871 10440716.699 18830343.716 10 0 60843 17100.00000 0 -15873403.407 10825639.279 16804016.520 10 0 60843 18000.00000 0 -17738050.973 11311640.571 14451955.600 10 0 60843 18900.00000 0 -19267330.313 11849759.600 11819685.138 10 0 60843 19800.00000 0 -20434725.531 12385974.012 8958179.112 10 0 60843 20700.00000 0 -21226441.566 12863629.312 5922883.149 10 0 60843 21600.00000 0 -21641798.979 13225995.399 2772647.411 10 0 60843 22500.00000 0 -21693094.429 13418842.765 -431409.495 10 0 60843 23400.00000 0 -21404932.386 13392929.351 -3627083.859 10 0 60843 24300.00000 0 -20813055.876 13106292.438 -6752294.572 10 0 60843 25200.00000 0 -19962725.130 12526247.687 -9746291.535 10 0 60843 26100.00000 0 -18906712.219 11631009.536 -12550840.800 10 0 60843 27000.00000 0 -17702996.100 10410862.813 -15111362.844 10 0 60843 27900.00000 0 -16412255.306 8868834.299 -17378001.207 10 0 60843 28800.00000 0 -15095264.186 7020833.956 -19306600.034 10 0 60843 29700.00000 0 -13810302.761 4895257.917 -20859570.939 10 0 60843 30600.00000 0 -12610689.679 2532068.054 -22006631.832 10 0 60843 31500.00000 0 -11542542.590 -18614.919 -22725402.900 10 0 60843 32400.00000 0 -10642860.545 -2698347.301 -23001847.839 10 0 60843 33300.00000 0 -9938009.389 -5442551.587 -22830551.486 10 0 60843 34200.00000 0 -9442673.981 -8182968.298 -22214828.213 10 0 60843 35100.00000 0 -9159321.268 -10850268.704 -21166658.815 10 0 60843 36000.00000 0 -9078196.548 -13376719.751 -19706456.945 10 0 60843 36900.00000 0 -9177852.590 -15698790.154 -17862669.578 10 0 60843 37800.00000 0 -9426188.662 -17759589.016 -15671219.257 10 0 60843 38700.00000 0 -9781954.733 -19511035.300 -13174799.100 10 0 60843 39600.00000 0 -10196656.388 -20915667.720 -10422034.586 10 0 60843 40500.00000 0 -10616778.814 -21948019.841 -7466528.895 10 0 60843 41400.00000 0 -10986234.712 -22595503.569 -4365811.016 10 0 60843 42300.00000 0 -11248931.439 -22858765.033 -1180207.905 10 0 60843 43200.00000 0 -11351347.735 -22751499.279 2028336.481 10 0 60843 44100.00000 0 -11245010.173 -22299733.129 5197471.447 10 0 60843 45000.00000 0 -10888763.892 -21540608.024 8265654.775 10 0 60843 45900.00000 0 -10250741.277 -20520715.663 11173348.704 10 0 60843 46800.00000 0 -9309945.204 -19294057.909 13864173.206 10 0 60843 47700.00000 0 -8057380.054 -17919717.875 16285994.184 10 0 60843 48600.00000 0 -6496682.935 -16459340.769 18391925.969 10 0 60843 49500.00000 0 -4644228.517 -14974530.484 20141229.476 10 0 60843 50400.00000 0 -2528702.972 -13524270.871 21500089.667 10 0 60843 51300.00000 0 -190164.432 -12162479.013 22442258.516 10 0 60843 52200.00000 0 2321371.517 -10935791.827 22949552.319 10 0 60843 53100.00000 0 4947763.332 -9881677.263 23012194.866 10 0 60843 54000.00000 0 7624917.125 -9026947.632 22629000.794 10 0 60843 54900.00000 0 10285213.626 -8386735.870 21807396.163 10 0 60843 55800.00000 0 12860089.369 -7963976.391 20563276.039 10 0 60843 56700.00000 0 15282666.667 -7749411.376 18920701.636 10 0 60843 57600.00000 0 17490324.809 -7722121.773 16911442.233 10 0 60843 58500.00000 0 19427107.028 -7850560.589 14574369.854 10 0 60843 59400.00000 0 21045864.214 -8094045.294 11954717.279 10 0 60843 60300.00000 0 22310046.891 -8404646.989 9103212.587 10 0 60843 61200.00000 0 23195071.035 -8729397.268 6075105.890 10 0 60843 62100.00000 0 23689200.744 -9012720.194 2929106.152 10 0 60843 63000.00000 0 23793910.586 -9198986.959 -273751.985 10 0 60843 63900.00000 0 23523711.986 -9235085.280 -3471289.741 10 0 60843 64800.00000 0 22905450.444 -9072894.493 -6601391.263 10 0 60843 65700.00000 0 21977102.579 -8671560.880 -9603212.580 10 0 60843 66600.00000 0 20786123.126 -7999475.849 -12418368.491 10 0 60843 67500.00000 0 19387411.145 -7035871.838 -14992073.756 10 0 60843 68400.00000 0 17840980.843 -5771966.766 -17274215.747 10 0 60843 69300.00000 0 16209435.086 -4211606.820 -19220337.028 10 0 60843 70200.00000 0 14555347.975 -2371378.506 -20792508.156 10 0 60843 71100.00000 0 12938666.845 -280183.280 -21960073.208 10 0 60843 72000.00000 0 11414243.148 2021709.175 -22700253.104 10 0 60843 72900.00000 0 10029596.191 4484090.918 -22998594.656 10 0 60843 73800.00000 0 8823003.827 7048670.433 -22849256.333 10 0 60843 74700.00000 0 7822000.270 9651275.433 -22255124.993 10 0 60843 75600.00000 0 7042343.945 12224312.440 -21227761.090 10 0 60843 76500.00000 0 6487498.302 14699380.864 -19787173.319 10 0 60843 77400.00000 0 6148646.803 17009932.559 -17961426.977 10 0 60843 78300.00000 0 6005240.534 19093865.834 -15786093.670 10 0 60843 79200.00000 0 6026054.304 20895945.513 -13303553.181 10 0 60843 80100.00000 0 6170705.437 22369947.844 -10562161.386 10 0 60843 81000.00000 0 6391569.759 23480440.664 -7615300.874 10 0 60843 81900.00000 0 6636012.413 24204124.654 -4520333.353 10 0 60843 82800.00000 0 6848837.768 24530680.091 -1337475.058 10 0 60843 83700.00000 0 6974853.491 24463084.531 1871382.097 10 0 60843 84600.00000 0 6961439.146 24017389.335 5043879.851 10 0 60843 85500.00000 0 6761009.777 23221965.791 8118409.063 99